RH
51 50 47 44 39 35 39 48 55 60 65 70 76 79 79 79 79 78 77 77 77 76 80 84 86 86 81 71 59 46 32 21 15 11 8 8 8 8 8 8 9 9 9 11 11 11 12 12 12 12 12 12 12 13 13 14 15 15 15 15 16 16 15
52 51 49 47 43 39 42 50 58 63 69 77 83 84 84 84 82 80 80 80 80 82 86 88 86 83 76 65 55 41 28 19 14 11 9 9 9 9 9 9 10 10 10 11 12 12 12 13 13 13 13 14 14 15 15 16 16 17 17 17 17 17 16
55 51 49 46 43 40 43 51 58 65 74 83 88 90 89 86 84 84 84 85 86 87 88 86 80 73 65 56 46 33 22 17 14 12 11 10 10 10 11 11 11 12 12 12 13 14 14 14 14 15 15 15 16 16 17 17 18 18 18 18 17 17 16
59 53 48 45 41 39 41 48 58 69 81 91 95 93 89 86 87 88 88 89 90 89 86 79 68 59 53 46 37 27 21 18 15 13 12 12 12 12 12 13 13 13 13 14 14 15 15 16 16 16 16 17 18 18 19 19 20 19 19 19 18 17 16
65 59 52 47 42 38 41 49 60 75 89 97 96 91 89 90 91 92 92 93 92 87 79 69 60 54 48 39 30 23 19 16 15 14 13 13 13 14 14 14 15 15 15 16 16 17 17 17 18 18 19 20 20 21 21 21 21 21 19 19 18 17 16
73 67 60 54 47 44 46 53 67 83 95 97 93 91 93 94 94 95 96 94 88 80 72 64 56 49 39 31 25 21 18 15 15 15 15 15 15 16 16 16 17 17 17 18 18 18 19 19 20 21 21 23 23 23 23 22 21 20 19 18 17 16 15
80 73 67 60 55 52 53 61 77 91 96 95 94 95 96 96 97 99 96 89 81 73 63 53 46 38 31 27 23 20 18 17 17 17 17 17 17 17 18 18 19 19 19 20 20 21 22 22 23 24 25 25 26 25 24 22 20 19 18 17 16 14 13
86 77 70 65 60 58 61 72 85 92 94 95 96 97 97 98 100 97 90 81 70 59 49 42 38 35 31 27 22 21 21 20 20 20 19 19 19 19 20 20 21 21 22 22 23 24 25 26 26 27 28 27 26 25 23 22 20 18 17 15 14 13 12
90 80 72 66 63 65 72 83 90 91 93 96 97 97 100 100 97 89 78 68 59 52 48 45 42 37 31 27 26 26 26 24 23 22 21 21 21 21 22 23 23 23 24 25 26 27 28 29 29 29 28 27 25 24 22 20 19 17 15 14 13 12 11
94 83 73 69 70 76 83 88 89 91 95 97 99 100 101 97 89 78 69 63 60 58 54 49 43 38 36 35 35 33 30 28 25 23 23 23 23 23 24 24 25 26 27 28 29 30 30 30 30 28 27 25 23 22 20 18 17 15 14 12 11 10 9
97 87 79 79 81 84 87 89 90 94 97 99 101 100 95 89 80 73 70 67 64 59 53 49 46 45 44 41 38 34 30 28 25 24 24 24 25 25 26 27 28 29 30 31 32 32 31 30 28 26 25 23 22 20 18 16 15 13 12 11 9 8 7
99 92 87 87 88 88 91 94 96 98 100 100 99 94 88 82 77 73 70 65 61 57 55 53 51 48 44 39 34 31 28 27 26 25 26 26 27 28 28 30 31 32 34 34 33 32 30 28 26 24 23 21 19 18 16 14 13 11 10 9 7 7 6
99 96 92 91 91 93 96 98 99 101 100 98 93 88 82 78 73 70 67 63 62 60 58 55 50 44 38 34 31 29 28 27 27 27 28 28 29 30 32 34 36 36 36 34 32 30 28 27 25 22 21 19 17 15 13 11 10 9 8 7 7 7 7
99 98 95 93 94 97 99 100 100 100 96 91 87 82 78 75 72 69 67 65 63 60 55 49 42 36 33 31 30 29 28 28 28 28 29 30 32 35 37 38 38 37 35 33 31 28 26 24 22 20 18 15 13 12 10 9 8 8 7 7 7 7 7
100 99 97 96 97 100 100 100 99 95 90 86 83 79 76 73 71 69 66 62 57 52 45 39 34 32 31 31 30 30 29 29 30 31 32 34 37 39 40 39 38 35 33 31 29 26 24 21 19 17 14 12 11 10 9 8 8 7 8 8 8 8 9
100 100 100 99 100 101 99 97 93 89 85 82 78 75 72 70 67 64 59 53 47 41 36 33 32 33 32 32 32 31 31 32 33 35 37 39 41 41 40 38 36 33 31 28 26 23 20 18 15 13 11 10 10 9 8 8 8 8 10 10 9 10 12
100 100 100 100 100 99 95 91 87 83 80 76 73 71 67 64 60 55 49 44 39 36 35 34 34 34 34 34 33 33 34 36 38 40 42 43 42 40 39 36 33 30 27 24 22 19 16 14 12 11 10 9 9 9 10 10 9 10 13 14 14 15 15
100 100 101 100 98 93 88 83 80 77 74 71 68 65 60 56 52 47 43 40 37 36 36 36 35 35 35 35 36 38 40 42 44 45 44 43 41 38 35 32 28 25 22 20 17 15 13 12 11 10 10 9 10 11 13 13 13 16 21 22 22 22 19
100 101 99 96 90 85 81 77 74 71 69 66 62 58 55 51 47 44 41 38 37 37 37 36 36 36 37 40 42 45 46 47 47 46 44 41 37 34 30 27 23 21 18 16 14 12 11 11 10 10 9 9 10 12 14 17 19 23 27 26 23 22 19
101 99 94 88 83 79 75 72 69 67 64 61 58 55 51 47 44 42 40 39 38 38 38 37 38 39 41 44 46 48 49 49 47 44 41 36 32 28 25 21 19 17 15 13 12 11 11 10 10 10 10 11 12 14 17 21 25 29 30 27 22 20 19
98 94 89 85 81 77 73 70 68 65 62 58 54 51 48 45 43 42 41 40 40 39 39 40 41 44 46 47 49 50 49 47 43 39 35 30 26 22 19 17 15 14 12 12 11 11 10 10 10 10 11 12 14 17 21 25 28 31 32 30 25 21 19
95 92 89 86 82 77 74 70 66 62 58 55 52 49 48 47 45 44 43 42 41 41 42 44 46 48 50 51 51 49 45 41 36 31 27 23 20 17 16 14 13 12 12 11 11 10 10 10 10 11 12 15 18 23 26 27 29 32 31 28 26 23 20
96 94 90 87 83 77 72 67 63 60 57 55 52 51 50 49 47 46 44 43 43 45 46 49 51 53 54 52 49 44 38 33 28 23 20 18 16 15 14 13 13 12 12 11 11 10 10 10 12 14 16 20 26 29 29 30 33 33 27 23 23 22 20
98 94 90 86 80 75 69 65 62 61 58 57 55 53 52 50 48 47 45 45 47 49 51 54 55 55 52 47 41 36 30 25 21 18 17 16 15 15 14 13 13 12 12 11 10 11 12 12 15 19 22 27 31 31 30 34 38 34 28 24 23 22 22
98 93 89 83 77 73 70 67 66 64 61 59 58 56 54 52 49 49 49 50 52 54 56 57 55 51 45 39 33 27 23 20 18 16 16 15 15 14 13 13 13 12 11 11 12 13 15 16 20 24 27 29 30 28 32 39 41 36 30 27 25 23 24
97 92 87 82 77 74 72 70 68 66 65 65 64 60 56 53 52 53 54 55 57 58 58 55 49 43 37 30 25 21 18 17 16 16 15 15 14 14 13 12 12 12 13 14 15 17 18 21 24 27 27 25 22 25 36 44 42 36 34 33 30 27 26
93 89 86 83 81 78 73 70 70 70 72 72 67 61 57 56 56 57 59 60 60 58 54 48 41 35 28 23 20 18 17 16 16 16 15 15 14 13 13 12 13 15 16 17 19 21 22 24 25 23 19 16 17 26 40 47 42 36 36 35 31 25 23
91 89 87 85 82 78 75 76 78 78 76 72 66 61 59 59 60 61 62 61 58 52 46 40 34 27 21 18 17 17 16 16 16 15 14 14 13 13 13 15 18 19 22 24 27 27 26 23 19 15 12 13 18 29 42 47 41 36 33 30 25 21 20
92 89 85 83 81 80 82 85 84 79 73 68 64 62 62 62 63 63 60 55 49 44 39 33 26 21 18 17 17 16 16 15 15 14 13 12 13 14 16 20 22 24 28 32 32 29 23 17 13 11 13 18 24 34 44 45 38 31 26 23 21 20 19
88 84 83 84 86 87 86 85 81 76 71 67 65 65 65 65 63 59 53 48 42 37 31 25 20 18 17 17 17 16 15 15 14 12 12 12 15 18 20 23 25 27 29 28 24 19 14 12 11 12 16 23 31 38 43 40 32 25 23 23 22 20 19
87 86 87 89 90 88 85 82 78 74 70 69 68 68 66 63 58 52 47 41 35 30 25 19 17 17 17 17 17 15 15 14 12 12 14 16 19 22 24 25 25 25 23 18 14 12 11 12 14 15 18 26 33 35 35 31 26 24 24 24 22 20 19
91 92 92 90 86 84 82 81 76 72 71 70 69 66 62 56 51 46 40 34 27 23 20 18 18 18 17 17 16 15 13 12 12 15 19 22 24 25 26 26 24 19 14 11 10 11 13 14 16 17 19 23 27 27 26 24 24 26 26 24 23 21 20
92 91 88 84 82 80 79 77 74 73 72 70 65 61 55 50 45 39 31 25 21 19 18 18 18 18 17 16 15 13 12 13 16 21 24 26 25 24 23 21 17 13 11 10 11 12 14 15 17 18 19 21 22 23 23 23 24 26 25 24 24 23 21
89 87 84 83 83 81 78 76 75 73 69 64 59 55 49 43 37 30 23 20 19 18 18 18 18 17 16 14 13 13 14 18 21 24 24 23 20 17 14 13 12 11 12 12 12 13 13 15 17 18 19 20 21 22 22 22 23 23 24 24 24 24 23
86 86 85 84 83 81 78 76 73 68 63 58 53 47 40 34 28 22 19 19 20 19 19 18 17 16 14 13 14 18 21 24 24 23 19 16 13 11 10 10 11 12 13 13 14 14 14 14 15 17 18 19 19 19 19 19 19 19 20 20 22 23 24
84 85 85 83 81 79 76 72 67 61 57 52 46 38 30 25 21 18 19 20 20 19 18 17 15 14 14 17 22 26 27 25 21 16 13 11 10 10 10 11 12 13 13 14 14 14 15 15 14 15 16 16 16 16 16 16 16 16 17 17 18 19 21
Wind_Speed
42 42 42 43 43 43 43 42 41 41 41 40 38 36 35 35 35 35 37 39 40 40 40 39 38 37 35 33 32 31 31 31 32 32 32 32 33 33 34 33 34 36 35 34 34 35 35 36 37 38 38 40 40 41 42 44 45 47 48 50 51 52 53
43 43 43 43 43 44 44 44 43 43 41 39 37 35 34 34 35 37 38 39 39 40 40 38 36 35 33 32 31 30 30 31 31 32 32 32 33 33 34 34 35 37 38 37 36 37 38 38 39 39 39 40 41 42 44 45 47 48 50 52 54 55 56
44 43 43 43 44 44 45 45 44 42 40 37 35 34 34 35 37 38 38 38 38 38 37 36 34 32 31 31 30 30 31 31 31 32 32 33 33 34 34 35 36 38 39 40 39 39 40 40 41 41 41 42 43 45 46 48 49 50 52 54 56 57 58
44 43 43 43 44 45 45 45 43 41 38 36 34 34 35 37 38 38 38 38 38 37 35 33 32 30 30 30 30 30 31 31 32 32 33 33 33 34 35 35 37 39 40 42 42 42 42 43 43 43 44 45 46 47 49 50 52 53 55 56 58 59 59
45 44 44 44 44 45 45 44 41 39 37 35 34 36 37 38 37 38 38 38 37 35 33 31 30 30 30 30 30 31 31 31 32 32 33 33 34 35 36 37 38 39 41 42 44 44 44 45 45 46 46 47 49 50 51 52 54 56 57 58 59 59 60
45 45 45 45 45 45 44 42 40 38 35 34 36 37 37 37 38 39 38 36 34 33 31 30 29 29 29 30 30 31 31 32 32 33 33 34 35 36 37 38 39 40 41 43 45 46 46 47 47 48 49 50 52 54 55 56 57 58 59 60 61 61 61
46 46 46 46 46 44 43 41 38 35 35 35 37 37 38 39 39 38 36 34 32 30 29 28 28 28 29 30 31 31 32 32 33 33 34 35 36 37 38 39 40 41 42 43 45 46 48 49 49 51 52 53 55 57 58 60 61 61 61 62 63 63 63
45 46 46 45 44 43 40 38 35 34 35 37 38 39 40 40 39 37 34 31 29 28 28 28 28 29 29 30 31 32 32 33 33 34 35 36 37 38 39 39 40 41 43 44 46 47 49 50 52 53 55 56 57 59 60 61 63 64 64 64 65 65 65
45 45 45 44 42 39 36 34 34 35 37 38 39 40 39 38 35 33 30 29 28 28 28 28 29 29 30 31 32 33 34 34 35 35 36 37 38 39 40 40 41 43 44 45 47 49 51 53 54 55 57 58 59 60 61 62 63 64 65 66 66 66 66
44 43 42 41 38 34 32 33 35 37 38 39 39 38 36 34 31 30 29 29 29 28 29 29 30 30 31 32 34 35 35 36 36 36 37 38 39 40 41 42 43 44 46 47 50 51 53 54 55 56 58 59 60 61 62 63 64 65 66 67 68 67 66
42 41 40 37 33 32 32 34 36 38 39 39 37 34 32 30 29 29 29 29 29 29 30 30 31 32 33 34 35 35 36 37 37 38 38 39 40 41 42 44 45 46 48 50 52 53 55 56 56 57 59 60 61 62 63 64 65 66 66 67 68 68 66
40 39 36 33 32 32 33 35 37 38 37 35 32 30 29 28 28 28 29 29 30 30 31 32 32 33 33 34 35 36 37 37 38 38 39 40 41 42 43 45 47 49 51 53 55 55 56 57 58 59 60 60 61 62 63 63 64 65 66 67 68 68 66
37 35 33 32 32 32 34 35 36 34 32 30 28 27 27 27 28 28 29 30 31 31 32 33 33 33 34 35 36 36 37 38 38 39 40 41 42 43 45 47 49 51 53 55 56 57 57 58 59 60 60 61 62 62 63 64 64 65 66 65 65 64 63
34 33 31 31 32 33 34 34 31 29 28 27 27 26 27 28 28 29 30 31 32 33 33 33 34 34 35 36 37 37 38 39 40 40 41 42 44 45 47 48 50 52 54 56 58 59 59 59 60 61 60 61 62 62 63 63 64 63 63 62 60 59 58
31 30 30 32 33 32 31 29 27 26 26 26 26 26 27 28 29 30 31 32 33 33 33 34 35 36 36 37 37 38 39 40 41 42 43 44 45 47 48 49 51 53 55 56 58 59 59 60 60 61 61 61 61 62 61 61 61 60 59 58 57 56 54
28 29 30 31 30 28 26 25 25 25 25 25 26 27 28 29 30 31 32 32 33 33 34 35 35 36 37 37 38 39 40 41 42 43 45 46 47 48 49 50 52 54 56 56 57 58 59 59 59 60 60 60 59 59 58 58 58 56 55 55 56 55 52
28 29 29 27 26 24 24 24 24 24 25 26 27 28 30 30 31 31 32 33 33 34 34 35 36 36 37 37 38 40 41 42 44 45 47 48 49 50 50 51 53 55 56 56 57 58 58 58 58 58 58 56 56 56 55 56 56 54 53 54 55 53 50
28 27 25 24 23 23 23 23 24 25 26 27 29 30 31 31 32 32 33 33 34 34 35 35 35 36 37 38 39 40 42 44 45 47 49 50 51 51 51 52 54 56 56 56 57 57 57 57 56 54 53 52 51 51 51 53 54 52 51 53 52 51 49
25 23 22 22 22 22 23 24 25 26 28 29 30 31 32 32 33 33 34 34 34 34 35 35 36 36 37 38 39 41 43 45 47 49 51 52 53 53 53 54 56 57 56 56 56 56 55 54 52 50 49 49 48 48 48 49 51 50 50 51 50 49 48
22 21 21 22 22 23 24 25 27 28 29 31 32 32 33 34 34 35 35 35 35 35 35 35 36 37 38 39 41 42 45 47 48 50 52 53 54 55 55 56 57 57 57 56 55 53 51 50 48 47 47 47 47 47 46 47 47 47 47 48 47 46 46
21 21 22 23 24 25 26 27 29 30 31 32 33 34 35 35 36 36 36 36 35 35 35 35 36 38 40 41 43 44 45 47 49 50 52 53 54 55 56 57 57 56 56 54 52 50 49 47 47 46 46 46 45 45 45 44 44 43 42 43 44 44 44
22 23 24 24 25 26 28 29 30 31 32 34 35 35 36 36 37 37 36 36 35 35 36 37 38 40 41 43 44 45 47 48 49 50 51 52 54 55 56 57 57 55 54 52 50 49 48 47 47 47 45 44 44 44 43 42 41 39 38 38 40 41 41
24 25 26 26 27 29 30 31 32 33 34 35 36 36 37 37 38 38 37 37 36 36 37 38 40 41 43 44 45 46 47 48 49 50 51 52 54 55 55 55 55 53 51 50 49 49 49 48 47 45 43 42 42 42 41 40 38 37 37 37 37 38 38
26 27 28 29 30 31 31 32 33 34 35 36 37 38 39 39 38 38 38 38 37 38 39 40 42 43 44 45 46 47 48 49 50 50 51 52 53 53 53 53 52 50 50 50 50 49 48 47 44 42 41 40 40 39 38 37 37 36 36 36 36 36 36
28 29 30 31 32 32 33 33 34 35 37 38 39 39 40 39 39 38 39 39 39 40 42 43 43 44 45 45 47 48 49 50 51 51 52 52 51 51 50 50 49 50 50 50 50 49 47 45 42 41 41 39 38 37 36 35 35 35 35 35 36 37 36
31 32 32 33 34 34 34 34 35 36 38 39 40 40 40 40 39 40 40 41 42 43 44 45 45 45 46 47 47 48 50 51 51 51 51 50 49 48 48 49 49 50 50 50 48 47 45 43 42 41 40 38 36 35 34 33 34 35 34 34 36 37 36
33 34 34 34 34 34 35 36 37 38 38 39 39 40 40 40 40 41 42 43 44 45 46 46 46 46 47 47 48 49 50 50 50 49 48 47 47 48 49 49 50 50 49 48 46 45 44 42 41 40 38 36 35 33 31 32 33 34 33 33 35 37 35
35 35 35 35 35 36 37 38 38 39 39 39 39 39 39 40 41 42 43 44 45 47 47 48 47 47 47 48 49 50 50 49 48 47 46 46 47 48 49 49 48 47 46 45 44 44 43 41 40 38 36 34 33 32 30 31 32 32 32 32 33 34 33
35 36 35 36 36 37 38 39 39 40 40 40 40 40 40 41 42 44 45 46 47 49 50 50 49 49 49 50 51 51 50 48 47 47 47 47 47 47 46 45 45 44 43 43 43 42 41 40 38 35 32 32 32 31 30 30 31 31 31 31 31 31 30
36 36 37 37 37 38 39 39 39 40 40 40 41 42 43 44 45 47 48 49 50 51 51 51 51 50 51 51 51 51 49 48 48 48 48 47 47 45 44 43 42 42 41 41 41 39 38 36 34 32 30 29 30 29 28 29 29 29 29 29 29 29 28
36 37 37 37 37 38 38 38 38 38 39 40 42 43 45 46 48 49 50 51 52 53 52 52 52 52 52 51 51 50 49 48 49 49 48 47 46 44 44 43 42 41 40 39 38 35 34 32 31 29 28 27 27 27 27 27 27 27 28 28 27 27 26
36 37 38 38 38 38 37 36 37 38 39 41 43 45 47 48 49 51 52 52 53 53 53 53 53 52 51 50 50 50 49 49 49 48 47 46 45 44 43 42 40 39 38 37 35 33 31 29 28 27 27 26 25 26 25 26 26 26 27 27 26 26 25
37 38 38 38 38 37 36 35 37 39 41 44 46 47 48 50 51 51 52 52 53 54 53 53 53 52 51 50 50 50 49 49 48 47 46 45 44 42 40 38 36 36 35 34 33 31 30 28 26 26 25 24 24 25 25 25 26 25 26 26 25 25 25
38 38 38 37 36 35 36 37 40 42 44 46 47 48 50 51 52 52 51 52 53 54 53 53 52 51 50 50 50 49 49 48 46 45 44 43 41 39 36 34 32 32 32 32 32 31 29 28 26 25 25 24 24 24 25 25 25 25 25 25 25 24 24
37 36 36 35 34 34 37 39 42 44 46 48 48 49 51 52 52 51 51 51 52 52 52 51 50 49 49 49 49 48 47 45 44 42 40 39 37 35 33 31 30 30 30 30 31 31 30 28 27 26 26 25 24 24 24 24 24 25 25 25 25 24 24
35 34 34 34 34 36 39 42 44 46 47 49 49 50 51 52 52 52 52 51 51 50 50 49 48 48 48 47 46 45 44 42 41 38 36 36 34 33 31 30 29 29 29 30 30 30 30 29 27 26 26 26 25 25 24 24 24 25 25 25 25 24 24
Wind_Direction
238 238 239 239 238 238 238 240 244 247 250 252 255 259 264 270 274 280 286 290 291 291 288 284 280 277 276 275 275 275 276 278 279 279 280 280 281 281 282 283 283 283 284 286 287 287 287 287 287 287 288 288 289 290 291 292 294 294 295 295 295 295 295
238 238 239 239 239 239 240 242 245 247 249 251 256 261 266 272 278 283 286 287 287 286 284 280 277 275 274 275 275 276 277 278 278 280 280 281 282 283 283 284 285 285 285 287 288 289 289 289 288 288 288 288 289 289 290 292 293 294 295 295 296 296 296
238 238 239 239 240 240 241 243 245 246 249 253 257 263 268 275 280 283 285 285 284 282 280 277 275 274 273 274 275 276 277 278 279 280 281 282 283 284 285 286 287 287 288 289 290 291 290 290 290 290 290 290 290 291 291 292 293 294 294 295 295 296 296
240 239 239 239 240 240 241 242 244 247 251 255 260 266 272 277 280 282 283 282 280 278 276 274 273 273 274 274 276 277 278 279 280 281 282 283 284 285 287 288 289 289 290 290 290 291 291 291 290 291 291 291 291 292 293 293 294 294 294 294 294 294 294
240 240 240 240 240 240 241 242 245 248 252 258 264 270 274 278 280 281 280 277 275 274 272 271 272 273 274 275 276 277 278 279 280 281 283 284 285 286 287 288 289 289 290 290 290 291 291 292 292 292 293 293 293 293 293 294 294 294 294 294 293 293 293
240 240 240 241 241 241 242 244 247 251 256 263 268 272 275 278 278 277 275 273 272 270 270 270 271 273 274 276 277 278 279 281 282 283 284 285 286 287 288 289 289 290 290 291 291 292 292 293 293 294 294 295 295 295 295 295 295 294 294 294 294 294 294
240 240 241 241 242 243 244 246 249 255 261 267 271 274 277 277 276 274 272 270 269 269 270 271 273 275 276 278 279 280 282 283 284 285 285 286 287 287 288 289 290 291 291 292 292 292 293 293 294 296 296 297 297 297 298 297 296 296 295 295 295 295 295
240 240 241 241 242 243 245 248 253 259 264 269 273 275 275 273 272 270 269 268 269 270 271 273 275 277 278 279 280 282 283 284 285 286 286 287 287 288 289 290 291 291 291 292 292 293 294 295 296 297 298 298 298 298 298 297 297 297 297 297 296 296 296
240 240 240 241 242 244 247 252 257 262 267 271 273 271 270 269 268 268 268 269 270 271 273 275 277 278 279 281 282 282 283 283 284 285 286 287 288 289 290 291 291 292 292 293 294 295 296 297 298 298 298 298 298 298 298 297 297 297 298 297 297 297 297
239 239 241 242 244 247 252 256 261 266 270 270 269 267 267 267 267 267 268 270 271 273 274 276 277 279 280 281 281 281 282 283 284 285 287 289 290 291 291 292 292 293 293 294 295 296 296 297 298 298 298 298 299 298 298 298 298 298 298 297 297 296 297
239 240 241 244 246 250 255 260 264 267 268 266 265 265 266 266 267 268 269 271 273 274 275 277 278 279 280 281 282 283 284 285 286 287 288 289 290 291 292 292 293 294 295 295 296 296 297 298 299 299 299 299 299 298 298 298 298 297 297 297 296 296 296
240 240 242 245 248 252 258 263 265 265 264 264 265 266 266 267 269 270 272 273 275 276 277 278 279 280 281 282 282 283 284 285 286 287 289 290 292 293 294 294 295 296 297 297 297 298 298 299 299 299 299 299 298 298 298 297 297 297 297 296 297 297 297
240 241 243 246 251 256 261 263 263 263 264 265 266 267 268 270 271 273 275 276 277 278 279 279 280 281 281 281 282 283 284 285 287 289 291 293 294 295 296 297 298 299 299 299 298 299 299 299 299 299 299 298 298 298 298 297 297 296 296 296 296 297 297
240 242 244 249 254 258 260 261 262 263 264 265 267 269 271 273 274 276 277 277 278 279 279 280 280 281 281 282 283 284 285 287 289 290 292 293 294 295 297 298 299 300 299 299 299 299 300 300 299 299 299 299 299 298 298 297 297 296 296 296 296 296 296
241 244 248 252 255 258 259 261 262 264 265 267 270 272 274 275 276 277 278 279 279 279 280 280 281 281 282 283 285 286 288 289 290 291 292 293 294 296 298 299 299 299 298 298 298 299 299 299 299 300 300 300 299 298 297 296 295 295 296 296 295 296 296
243 247 251 254 256 258 260 262 264 266 269 272 274 275 276 277 277 278 279 280 280 280 281 281 281 282 283 285 287 288 289 290 291 292 294 295 296 297 298 299 298 297 296 297 297 297 298 299 299 299 299 298 298 297 296 295 295 296 296 296 295 297 298
245 249 252 254 257 259 262 265 268 271 273 274 276 276 277 277 278 279 280 280 281 281 282 282 283 284 285 287 288 289 291 292 293 295 296 297 298 298 299 298 296 296 296 297 297 298 299 299 299 299 299 299 298 298 297 297 298 298 297 296 297 298 298
247 250 253 256 259 263 266 270 272 273 275 276 277 277 278 279 280 280 281 281 281 282 282 283 284 285 287 288 290 291 293 295 296 297 298 298 298 299 298 297 296 296 297 298 298 299 299 299 299 298 298 298 297 297 297 297 298 298 297 297 298 299 299
248 251 256 260 264 268 270 272 274 275 277 278 279 280 281 282 282 282 282 283 283 283 283 283 284 286 288 290 293 295 296 298 298 299 299 299 299 299 298 297 297 297 298 298 298 298 298 298 298 297 297 297 296 296 295 295 296 297 297 297 298 299 299
250 256 261 266 269 271 273 274 276 278 279 280 281 282 283 283 283 284 284 284 283 283 283 285 287 289 291 293 294 296 297 298 298 299 299 299 299 299 298 297 298 298 298 298 299 298 298 298 298 298 298 298 297 295 294 294 294 295 296 296 297 297 297
257 262 266 270 272 275 277 278 279 280 281 282 282 283 283 284 284 284 284 283 283 284 286 288 290 291 292 293 294 296 296 297 297 298 298 298 297 297 297 297 298 298 299 299 300 299 299 300 301 300 299 298 296 294 292 292 292 292 293 293 294 294 295
262 266 269 273 276 278 279 280 281 281 282 282 282 283 284 284 284 284 285 285 286 288 289 290 291 292 294 295 296 297 297 297 297 297 297 297 297 297 297 298 299 300 301 301 301 301 302 302 301 300 298 296 294 292 292 292 291 290 289 289 289 290 292
266 270 274 277 279 280 281 281 281 281 282 283 284 285 285 285 286 286 287 287 289 290 291 292 293 294 296 297 298 298 298 298 298 298 297 297 297 298 299 300 301 302 302 302 302 302 302 301 300 299 297 295 293 293 292 292 291 290 288 287 287 288 289
270 274 277 280 281 281 281 281 281 282 283 284 285 285 286 286 287 287 288 289 291 292 293 294 296 297 298 298 299 299 299 299 299 299 299 299 299 299 300 300 301 302 302 302 302 302 301 300 299 298 297 295 295 294 293 292 290 289 288 288 288 288 289
273 276 279 280 280 281 281 282 283 284 285 286 286 287 287 288 288 289 290 292 293 295 296 297 298 299 300 300 300 300 301 301 301 300 300 300 300 300 300 301 301 301 301 301 301 301 300 300 300 298 298 297 296 294 292 291 290 290 290 290 291 290 291
275 277 279 279 280 281 282 283 283 284 285 287 288 288 288 289 290 292 293 295 296 297 298 299 301 302 302 303 302 302 301 301 301 301 301 301 300 300 301 301 301 301 301 301 301 301 300 301 300 299 298 298 296 294 292 291 290 290 291 292 292 292 294
276 278 279 280 281 282 283 284 284 285 285 286 286 287 288 290 292 293 295 297 298 299 300 301 302 303 303 303 302 301 301 301 301 301 301 301 301 301 302 302 301 301 301 301 301 300 300 301 300 299 299 298 296 293 291 290 289 290 291 292 291 292 295
277 279 280 281 282 283 284 284 285 285 285 285 285 287 288 290 292 294 296 297 298 299 300 302 303 303 303 302 302 302 302 302 302 302 301 301 302 301 301 301 300 300 300 300 300 300 300 300 300 300 300 297 295 293 291 290 290 291 291 291 291 293 297
279 281 282 282 282 283 284 285 285 286 287 287 288 289 290 292 294 296 298 299 300 301 303 304 305 305 305 304 304 304 304 303 302 302 301 301 300 300 299 299 298 298 299 299 299 299 300 300 300 300 299 295 293 292 291 290 291 291 291 291 293 295 297
280 281 281 281 282 283 284 286 286 288 289 290 292 293 295 297 299 300 301 302 303 304 305 306 307 306 306 305 305 304 304 303 302 302 302 301 300 299 299 298 298 298 298 297 297 298 298 299 300 300 297 294 292 291 290 290 290 291 291 293 295 296 298
279 279 280 281 282 284 286 287 288 289 290 292 294 296 298 300 301 302 303 304 305 305 306 306 306 306 306 305 304 304 304 303 302 303 302 301 301 301 301 300 300 299 298 297 297 298 299 300 300 299 297 294 291 290 290 289 289 290 291 294 296 297 298
280 281 282 284 285 286 287 288 289 290 292 293 295 298 299 301 302 302 304 304 304 305 305 306 306 305 305 304 303 303 303 303 303 303 302 302 302 302 301 301 300 299 298 297 298 299 300 301 301 299 297 295 292 290 289 288 289 290 292 294 296 297 299
283 284 284 285 286 287 289 290 290 292 294 295 297 299 300 301 301 302 303 303 303 304 305 305 305 304 303 302 302 302 302 302 302 302 302 301 301 301 300 300 298 297 296 297 298 300 301 302 301 298 296 295 292 290 289 289 290 291 292 294 296 298 299
284 284 284 285 287 289 291 292 293 294 296 297 298 299 300 300 301 302 302 302 303 303 304 303 302 301 301 300 301 301 301 301 301 301 301 300 300 299 298 297 296 294 295 296 297 299 300 301 299 297 294 293 291 289 288 289 290 291 292 294 296 297 298
282 283 284 286 289 291 292 292 293 294 295 296 298 299 299 299 300 301 301 301 301 301 300 299 298 298 299 299 300 300 300 300 301 301 300 299 299 298 297 296 294 293 293 294 295 296 298 298 297 295 293 291 290 288 288 288 289 290 291 293 294 296 296
282 283 285 287 289 290 291 292 293 294 295 296 298 298 298 298 300 300 300 300 299 298 297 296 297 297 298 299 299 299 299 300 300 300 299 298 297 297 296 295 293 292 292 292 292 293 294 294 294 293 291 290 290 289 288 289 289 290 291 292 292 293 294